timestamp,surface_pressure_avg,surface_temp_avg,battery_voltage,lat,long
2019-01-02 00:00:00+00:00,272.5298,1.86,12.97,47.84626,-54.09684
2019-01-02 00:10:00+00:00,270.9048,1.8,12.89,47.84626,-54.09684
2019-01-02 00:20:00+00:00,259.7764,1.86,12.97,47.84626,-54.09684
2019-01-02 00:30:00+00:00,251.4998,1.9,12.97,47.84626,-54.09684
2019-01-02 00:40:00+00:00,244.6281,1.9,12.97,47.84626,-54.09684
2019-01-02 00:50:00+00:00,239.4314,1.9,12.97,47.84626,-54.09684
2019-01-02 01:00:00+00:00,235.8298,1.9,12.97,47.84626,-54.09684
2019-01-02 01:10:00+00:00,235.1681,1.9,12.81,47.84626,-54.09684
2019-01-02 01:20:00+00:00,233.6548,1.9,12.97,47.84626,-54.09684
2019-01-02 01:30:00+00:00,232.4698,1.9,12.97,47.84626,-54.09684
2019-01-02 01:40:00+00:00,227.7114,1.9,12.97,47.84626,-54.09684
2019-01-02 01:50:00+00:00,223.4665,1.85,12.97,47.84626,-54.09684
2019-01-02 02:00:00+00:00,225.1114,1.8,12.89,47.84626,-54.09684
2019-01-02 02:10:00+00:00,227.7931,1.8,12.81,47.84626,-54.09684
2019-01-02 02:20:00+00:00,224.9398,1.8,12.97,47.84626,-54.09684
2019-01-02 02:30:00+00:00,224.2448,1.8,12.97,47.84626,-54.09684
2019-01-02 02:40:00+00:00,226.6931,1.8,12.97,47.84626,-54.09684
2019-01-02 02:50:00+00:00,228.8614,1.8,12.97,47.84626,-54.09684
2019-01-02 03:00:00+00:00,226.2148,1.8,12.89,47.84626,-54.09684
2019-01-02 03:10:00+00:00,230.9565,1.8,12.81,47.84626,-54.09684
2019-01-02 03:20:00+00:00,237.7347,1.79,12.89,47.84626,-54.09684
2019-01-02 03:30:00+00:00,237.8448,1.8,12.89,47.84626,-54.09684
2019-01-02 03:40:00+00:00,241.6131,1.8,12.97,47.84626,-54.09684
2019-01-02 03:50:00+00:00,250.2997,1.79,12.97,47.84626,-54.09684
2019-01-02 04:00:00+00:00,254.2798,1.8,12.89,47.84626,-54.09684
2019-01-02 04:10:00+00:00,256.1114,1.8,12.81,47.84626,-54.09684
2019-01-02 04:20:00+00:00,262.3314,1.82,12.89,47.84626,-54.09684
2019-01-02 04:30:00+00:00,266.0947,1.8,12.89,47.84626,-54.09684
2019-01-02 04:40:00+00:00,266.0564,1.83,12.97,47.84626,-54.09684
2019-01-02 04:50:00+00:00,272.8981,1.8,12.97,47.84626,-54.09684
2019-01-02 05:00:00+00:00,283.4264,1.46,12.89,47.84626,-54.09684
2019-01-02 05:10:00+00:00,285.013,1.8,12.81,47.84626,-54.09684
2019-01-02 05:20:00+00:00,287.4414,1.7,12.89,47.84626,-54.09684
2019-01-02 05:30:00+00:00,301.0764,1.6,12.89,47.84626,-54.09684
2019-01-02 05:40:00+00:00,308.3014,1.5,12.89,47.84626,-54.09684
2019-01-02 05:50:00+00:00,305.5197,1.5,12.89,47.84626,-54.09684
2019-01-02 06:00:00+00:00,315.753,1.5,12.81,47.84626,-54.09684
2019-01-02 06:10:00+00:00,332.978,1.4,12.73,47.84626,-54.09684
2019-01-02 06:20:00+00:00,340.3214,1.39,12.89,47.84626,-54.09684
2019-01-02 06:30:00+00:00,344.3879,1.4,12.89,47.84626,-54.09684
2019-01-02 06:40:00+00:00,351.6163,1.4,12.89,47.84626,-54.09684
2019-01-02 06:50:00+00:00,356.4363,1.4,12.89,47.84626,-54.09684
2019-01-02 07:00:00+00:00,355.4146,1.4,12.81,47.84626,-54.09684
2019-01-02 07:10:00+00:00,362.5114,1.4,12.73,47.84626,-54.09684
2019-01-02 07:20:00+00:00,366.8712,1.44,12.81,47.84626,-54.09684
2019-01-02 07:30:00+00:00,359.8297,1.5,12.89,47.84626,-54.09684
2019-01-02 07:40:00+00:00,361.4796,1.5,12.89,47.84626,-54.09684
2019-01-02 07:50:00+00:00,364.9879,1.48,12.89,47.84626,-54.09684
2019-01-02 08:00:00+00:00,361.1763,1.41,12.81,47.84626,-54.09684
2019-01-02 08:10:00+00:00,351.4597,1.4,12.73,47.84626,-54.09684
2019-01-02 08:20:00+00:00,358.2413,1.36,12.81,47.84626,-54.09684
2019-01-02 08:30:00+00:00,367.2413,1.36,12.81,47.84626,-54.09684
2019-01-02 08:40:00+00:00,349.2079,1.35,12.89,47.84626,-54.09684
2019-01-02 08:50:00+00:00,336.7229,1.33,12.89,47.84626,-54.09684
2019-01-02 09:00:00+00:00,342.6413,1.39,12.81,47.84626,-54.09684
2019-01-02 09:10:00+00:00,341.4429,1.4,12.73,47.84626,-54.09684
2019-01-02 09:20:00+00:00,332.2897,1.38,12.81,47.84626,-54.09684
2019-01-02 09:30:00+00:00,341.6829,1.32,12.81,47.84626,-54.09684
2019-01-02 09:40:00+00:00,357.4946,1.29,12.89,47.84626,-54.09684
2019-01-02 09:50:00+00:00,347.658,1.1,12.89,47.84626,-54.09684
2019-01-02 10:00:00+00:00,333.3763,1.1,12.81,47.84626,-54.09684
2019-01-02 10:10:00+00:00,340.563,1.19,12.73,47.84626,-54.09684
2019-01-02 10:20:00+00:00,340.883,1.1,12.81,47.84626,-54.09684
2019-01-02 10:30:00+00:00,326.793,1.1,12.81,47.84626,-54.09684
2019-01-02 10:40:00+00:00,322.5696,1.1,12.89,47.84626,-54.09684
2019-01-02 10:50:00+00:00,321.8414,1.1,12.89,47.84626,-54.09684
2019-01-02 11:00:00+00:00,310.6996,1.1,12.81,47.84626,-54.09684
2019-01-02 11:10:00+00:00,299.2714,1.0,12.73,47.84626,-54.09684
2019-01-02 11:20:00+00:00,298.2563,1.0,12.81,47.84626,-54.09684
2019-01-02 11:30:00+00:00,294.573,0.79,12.81,47.84626,-54.09684
2019-01-02 11:40:00+00:00,283.7131,0.89,12.89,47.84626,-54.09684
2019-01-02 11:50:00+00:00,278.718,0.9,12.89,47.84626,-54.09684
2019-01-02 12:00:00+00:00,276.168,0.9,12.81,47.84626,-54.09684
2019-01-02 12:10:00+00:00,268.0281,0.87,12.73,47.84626,-54.09684
2019-01-02 12:20:00+00:00,258.7264,0.8,12.81,47.84626,-54.09684
2019-01-02 12:30:00+00:00,254.1264,0.8,12.89,47.84626,-54.09684
2019-01-02 12:40:00+00:00,245.9364,0.86,12.97,47.84626,-54.09684
2019-01-02 12:50:00+00:00,234.9964,0.88,12.97,47.84626,-54.09684
2019-01-02 13:00:00+00:00,224.9832,0.85,12.97,47.84626,-54.09684
2019-01-02 13:10:00+00:00,217.7881,0.85,12.89,47.84626,-54.09684
2019-01-02 13:20:00+00:00,211.0881,0.85,13.05,47.84626,-54.09684
2019-01-02 13:30:00+00:00,205.1164,0.82,13.13,47.84626,-54.09684
2019-01-02 13:40:00+00:00,200.6881,0.77,13.21,47.84626,-54.09684
2019-01-02 13:50:00+00:00,199.4781,0.6,13.29,47.84626,-54.09684
2019-01-02 14:00:00+00:00,196.8898,0.58,13.29,47.84626,-54.09684
2019-01-02 14:10:00+00:00,189.9298,0.68,13.21,47.84626,-54.09684
2019-01-02 14:20:00+00:00,181.9631,0.77,13.29,47.84626,-54.09684
2019-01-02 14:30:00+00:00,179.5231,0.9,13.37,47.84626,-54.09684
2019-01-02 14:40:00+00:00,181.9031,1.01,13.44,47.84626,-54.09684
2019-01-02 14:50:00+00:00,179.1498,1.0,13.44,47.84626,-54.09684
2019-01-02 15:00:00+00:00,174.6782,0.9,13.37,47.84626,-54.09684
2019-01-02 15:10:00+00:00,180.0765,1.06,13.29,47.84626,-54.09684
2019-01-02 15:20:00+00:00,185.7965,1.34,13.37,47.84626,-54.09684
2019-01-02 15:30:00+00:00,183.2265,1.13,13.44,47.84626,-54.09684
2019-01-02 15:40:00+00:00,184.7864,1.16,13.44,47.84626,-54.09684
2019-01-02 15:50:00+00:00,191.7615,1.4,13.44,47.84626,-54.09684
2019-01-02 16:00:00+00:00,193.0198,1.3,13.37,47.84626,-54.09684
2019-01-02 16:10:00+00:00,189.9098,1.17,13.29,47.84626,-54.09684
2019-01-02 16:20:00+00:00,190.8615,1.3,13.29,47.84626,-54.09684
2019-01-02 16:30:00+00:00,191.6498,1.4,13.37,47.84626,-54.09684
2019-01-02 16:40:00+00:00,192.1431,1.5,13.37,47.84626,-54.09684
2019-01-02 16:50:00+00:00,196.5381,1.4,13.44,47.84626,-54.09684
2019-01-02 17:00:00+00:00,202.6864,1.38,13.37,47.84626,-54.09684
2019-01-02 17:10:00+00:00,201.6315,1.5,13.29,47.84626,-54.09684
2019-01-02 17:20:00+00:00,200.0248,1.4,13.37,47.84626,-54.09684
2019-01-02 17:30:00+00:00,204.3348,1.39,13.37,47.84626,-54.09684
2019-01-02 17:40:00+00:00,207.5232,1.5,13.44,47.84626,-54.09684
2019-01-02 17:50:00+00:00,207.7981,1.51,13.44,47.84626,-54.09684
2019-01-02 18:00:00+00:00,209.9731,1.5,13.37,47.84626,-54.09684
2019-01-02 18:10:00+00:00,216.3131,1.52,13.29,47.84626,-54.09684
2019-01-02 18:20:00+00:00,218.7614,1.54,13.29,47.84626,-54.09684
2019-01-02 18:30:00+00:00,220.4681,1.55,13.29,47.84626,-54.09684
2019-01-02 18:40:00+00:00,224.1264,1.53,13.29,47.84626,-54.09684
2019-01-02 18:50:00+00:00,230.0998,1.51,13.29,47.84626,-54.09684
2019-01-02 19:00:00+00:00,235.6297,1.54,13.21,47.84626,-54.09684
2019-01-02 19:10:00+00:00,237.6548,1.57,13.05,47.84626,-54.09684
2019-01-02 19:20:00+00:00,243.9848,1.6,13.05,47.84626,-54.09684
2019-01-02 19:30:00+00:00,255.9047,1.6,13.05,47.84626,-54.09684
2019-01-02 19:40:00+00:00,262.8881,1.6,13.05,47.84626,-54.09684
2019-01-02 19:50:00+00:00,267.0614,1.5,13.05,47.84626,-54.09684
2019-01-02 20:00:00+00:00,277.0647,1.5,12.97,47.84626,-54.09684
2019-01-02 20:10:00+00:00,287.4364,1.6,12.89,47.84626,-54.09684
2019-01-02 20:20:00+00:00,285.9413,1.58,12.97,47.84626,-54.09684
2019-01-02 20:30:00+00:00,288.6198,1.6,12.97,47.84626,-54.09684
2019-01-02 20:40:00+00:00,295.0797,1.6,12.97,47.84626,-54.09684
2019-01-02 20:50:00+00:00,301.643,1.5,12.97,47.84626,-54.09684
2019-01-02 21:00:00+00:00,303.2864,1.5,12.89,47.84626,-54.09684
2019-01-02 21:10:00+00:00,307.598,1.51,12.81,47.84626,-54.09684
2019-01-02 21:20:00+00:00,309.5197,1.59,12.89,47.84626,-54.09684
2019-01-02 21:30:00+00:00,310.293,1.6,12.89,47.84626,-54.09684
2019-01-02 21:40:00+00:00,315.0463,1.66,12.89,47.84626,-54.09684
2019-01-02 21:50:00+00:00,320.7113,1.7,12.89,47.84626,-54.09684
2019-01-02 22:00:00+00:00,323.1396,1.7,12.81,47.84626,-54.09684
2019-01-02 22:10:00+00:00,324.4363,1.7,12.73,47.84626,-54.09684
2019-01-02 22:20:00+00:00,326.1113,1.74,12.81,47.84626,-54.09684
2019-01-02 22:30:00+00:00,326.1946,1.79,12.81,47.84626,-54.09684
2019-01-02 22:40:00+00:00,325.5714,1.8,12.81,47.84626,-54.09684
2019-01-02 22:50:00+00:00,330.0013,1.8,12.89,47.84626,-54.09684
2019-01-02 23:00:00+00:00,324.9713,1.79,12.81,47.84626,-54.09684
2019-01-02 23:10:00+00:00,317.6597,1.7,12.73,47.84626,-54.09684
2019-01-02 23:20:00+00:00,315.0663,1.7,12.81,47.84626,-54.09684
2019-01-02 23:30:00+00:00,313.5963,1.73,12.81,47.84626,-54.09684
2019-01-02 23:40:00+00:00,303.5947,1.7,12.81,47.84626,-54.09684
2019-01-02 23:50:00+00:00,295.1663,1.6,12.81,47.84626,-54.09684
